Weather History for KRAL - April, 2013

Change the Weather History Date:

Saturday, April 20, 2013

  Actual Average Record
Temperature  
Mean Temperature 72 °F 64 °F  
Max Temperature 93 °F 76 °F 101 °F (2009)
Min Temperature 51 °F 51 °F 36 °F (1955)
Degree Days  
Heating Degree Days 0 3  
Month to date heating degree days 42 82  
Since 1 July heating degree days 1158 1395  
Cooling Degree Days 7 2  
Month to date cooling degree days 18 22  
Year to date cooling degree days 56 43  
Growing Degree Days 21 (Base 50)    
Moisture  
Dew Point 33 °F    
Average Humidity 25    
Maximum Humidity 41    
Minimum Humidity 9    
Precipitation  
Precipitation 0.00 in 0.03 in 0.91 in (1988)
Month to date precipitation T 0.51  
Year to date precipitation 2.11 8.50  
Since 1 July precipitation 4.02  
Snow  
Snow 0.00 in - - ()
Month to date snowfall 0.0  
Year to date snowfall 0.0  
Since 1 July snowfall 0.0  
Snow Depth 0.00 in    
Sea Level Pressure  
Sea Level Pressure 29.90 in    
Wind  
Wind Speed 4 mph (WNW)    
Max Wind Speed 16 mph    
Max Gust Speed 23 mph    
Visibility 10 miles    
Events      
T = Trace of Precipitation, MM = Missing Value Source: NWS Daily Summary

Daily Weather History Graph

Daily Weather History Graph

Search for Another Location

Airport or City:

Trip Planner

Search our weather history database for the weather conditions in past years. The results will help you decide how hot, cold, wet, or windy it might be!

Date:

Astronomy

Apr. 20, 2013 Rise Set
Actual Time 6:12 AM PDT 7:25 PM PDT
Civil Twilight 5:46 AM PDT 7:51 PM PDT
Nautical Twilight 5:15 AM PDT 8:22 PM PDT
Astronomical Twilight 4:43 AM PDT 8:54 PM PDT
Moon 2:27 PM PDT (4/20) 2:49 AM PDT (4/20)
Length of Visible Light 14h 04m
Length of Day
13h 12m
Waxing Gibbous, 72% of the Moon is Illuminated
Apr 20
Waxing Gibbous
Apr 25
Full
May 2
Last Quarter
May 9
New
May 17
First Quarter

Hourly Weather History & Observations

Time (PDT) Temp. Dew Point Humidity Pressure Visibility Wind Dir Wind Speed Gust Speed Precip Events Conditions
12:53 AM 59.0 °F 28.9 °F 32% 29.96 in 10.0 mi Calm Calm - N/A   Clear
1:53 AM 59.0 °F 28.9 °F 32% 29.95 in 10.0 mi NNE 5.8 mph - N/A   Clear
2:53 AM 57.9 °F 27.0 °F 31% 29.93 in 10.0 mi NE 4.6 mph - N/A   Clear
3:53 AM 59.0 °F 25.0 °F 27% 29.91 in 10.0 mi South 3.5 mph - N/A   Clear
4:53 AM 55.0 °F 28.0 °F 35% 29.90 in 10.0 mi NE 3.5 mph - N/A   Clear
5:53 AM 51.1 °F 28.0 °F 41% 29.91 in 10.0 mi Calm Calm - N/A   Clear
6:53 AM 53.1 °F 30.0 °F 41% 29.92 in 10.0 mi Calm Calm - N/A   Clear
7:53 AM 57.9 °F 30.9 °F 36% 29.93 in 10.0 mi Calm Calm - N/A   Clear
8:53 AM 63.0 °F 28.9 °F 28% 29.93 in 10.0 mi West 4.6 mph - N/A   Clear
9:53 AM 69.1 °F 30.0 °F 23% 29.92 in 10.0 mi West 4.6 mph - N/A   Clear
10:53 AM 75.9 °F 28.9 °F 18% 29.92 in 10.0 mi Variable 5.8 mph - N/A   Clear
11:53 AM 82.0 °F 28.9 °F 14% 29.90 in 10.0 mi WNW 3.5 mph - N/A   Clear
12:53 PM 88.0 °F 28.9 °F 12% 29.87 in 10.0 mi Calm Calm - N/A   Clear
1:53 PM 91.0 °F 24.1 °F 9% 29.85 in 10.0 mi WSW 4.6 mph - N/A   Clear
2:53 PM 91.0 °F 24.1 °F 9% 29.83 in 10.0 mi Calm Calm - N/A   Clear
3:53 PM 91.0 °F 36.0 °F 14% 29.81 in 10.0 mi West 9.2 mph 19.6 mph N/A   Clear
4:53 PM 87.1 °F 42.1 °F 21% 29.81 in 10.0 mi West 13.8 mph 23.0 mph N/A   Clear
5:53 PM 84.0 °F 39.0 °F 20% 29.83 in 10.0 mi West 10.4 mph 20.7 mph N/A   Clear
6:53 PM 79.0 °F 39.9 °F 25% 29.85 in 10.0 mi West 8.1 mph - N/A   Clear
7:53 PM 75.9 °F 43.0 °F 31% 29.87 in 10.0 mi West 8.1 mph - N/A   Clear
8:53 PM 72.0 °F 45.0 °F 38% 29.91 in 10.0 mi Calm Calm - N/A   Clear
9:53 PM 70.0 °F 45.0 °F 41% 29.93 in 10.0 mi Calm Calm - N/A   Clear
10:53 PM 68.0 °F 45.0 °F 43% 29.93 in 10.0 mi Calm Calm - N/A   Clear
11:53 PM 66.0 °F 42.1 °F 42% 29.93 in 10.0 mi Calm Calm - N/A   Clear